Year,Month,Day,Hour,Minute,Value (Times are PST for temperature in C)
2018,08,11,00,00,21.70
2018,08,11,00,01,21.70
2018,08,11,00,02,21.70
2018,08,11,00,03,21.70
2018,08,11,00,04,21.70
2018,08,11,00,05,21.70
2018,08,11,00,06,21.70
2018,08,11,00,07,21.70
2018,08,11,00,08,21.70
2018,08,11,00,09,21.70
2018,08,11,00,10,21.70
2018,08,11,00,11,21.70
2018,08,11,00,12,21.70
2018,08,11,00,13,21.70
2018,08,11,00,14,21.70
2018,08,11,00,15,21.60
2018,08,11,00,16,21.60
2018,08,11,00,17,21.60
2018,08,11,00,18,21.60
2018,08,11,00,19,21.60
2018,08,11,00,20,21.60
2018,08,11,00,21,21.60
2018,08,11,00,22,21.50
2018,08,11,00,23,21.50
2018,08,11,00,24,21.50
2018,08,11,00,25,21.50
2018,08,11,00,26,21.40
2018,08,11,00,27,21.40
2018,08,11,00,28,21.40
2018,08,11,00,29,21.40
2018,08,11,00,30,21.40
2018,08,11,00,31,21.40
2018,08,11,00,32,21.40
2018,08,11,00,33,21.30
2018,08,11,00,34,21.30
2018,08,11,00,35,21.30
2018,08,11,00,36,21.30
2018,08,11,00,37,21.30
2018,08,11,00,38,21.30
2018,08,11,00,39,21.30
2018,08,11,00,40,21.30
2018,08,11,00,41,21.30
2018,08,11,00,42,21.30
2018,08,11,00,43,21.30
2018,08,11,00,44,21.30
2018,08,11,00,45,21.30
2018,08,11,00,46,21.30
2018,08,11,00,47,21.30
2018,08,11,00,48,21.30
2018,08,11,00,49,21.30
2018,08,11,00,50,21.30
2018,08,11,00,51,21.30
2018,08,11,00,52,21.30
2018,08,11,00,53,21.30
2018,08,11,00,54,21.30
2018,08,11,00,55,21.30
2018,08,11,00,56,21.30
2018,08,11,00,57,21.30
2018,08,11,00,58,21.30
2018,08,11,00,59,21.30
2018,08,11,01,00,21.30
2018,08,11,01,01,21.30
2018,08,11,01,02,21.20
2018,08,11,01,03,21.20
2018,08,11,01,04,21.20
2018,08,11,01,05,21.20
2018,08,11,01,06,21.20
2018,08,11,01,07,21.10
2018,08,11,01,08,21.10
2018,08,11,01,09,21.10
2018,08,11,01,10,21.10
2018,08,11,01,11,21.10
2018,08,11,01,12,21.10
2018,08,11,01,13,21.10
2018,08,11,01,14,21.00
2018,08,11,01,15,21.10
2018,08,11,01,16,21.00
2018,08,11,01,17,21.00
2018,08,11,01,18,21.00
2018,08,11,01,19,21.00
2018,08,11,01,20,21.00
2018,08,11,01,21,20.90
2018,08,11,01,22,20.90
2018,08,11,01,23,20.80
2018,08,11,01,24,20.80
2018,08,11,01,25,20.80
2018,08,11,01,26,20.80
2018,08,11,01,27,20.80
2018,08,11,01,28,20.80
2018,08,11,01,29,20.80
2018,08,11,01,30,20.80
2018,08,11,01,31,20.80
2018,08,11,01,32,20.80
2018,08,11,01,33,20.80
2018,08,11,01,34,20.70
2018,08,11,01,35,20.80
2018,08,11,01,36,20.80
2018,08,11,01,37,20.80
2018,08,11,01,38,20.80
2018,08,11,01,39,20.80
2018,08,11,01,40,20.80
2018,08,11,01,41,20.80
2018,08,11,01,42,20.80
2018,08,11,01,43,20.70
2018,08,11,01,44,20.70
2018,08,11,01,45,20.70
2018,08,11,01,46,20.80
2018,08,11,01,47,20.80
2018,08,11,01,48,20.80
2018,08,11,01,49,20.80
2018,08,11,01,50,20.80
2018,08,11,01,51,20.80
2018,08,11,01,52,20.80
2018,08,11,01,53,20.80
2018,08,11,01,54,20.80
2018,08,11,01,55,20.70
2018,08,11,01,56,20.70
2018,08,11,01,57,20.70
2018,08,11,01,58,20.70
2018,08,11,01,59,20.70
2018,08,11,02,00,20.60
2018,08,11,02,01,20.70
2018,08,11,02,02,20.70
2018,08,11,02,03,20.70
2018,08,11,02,04,20.70
2018,08,11,02,05,20.70
2018,08,11,02,06,20.70
2018,08,11,02,07,20.70
2018,08,11,02,08,20.70
2018,08,11,02,09,20.70
2018,08,11,02,10,20.70
2018,08,11,02,11,20.70
2018,08,11,02,12,20.70
2018,08,11,02,13,20.70
2018,08,11,02,14,20.80
2018,08,11,02,15,20.90
2018,08,11,02,16,20.90
2018,08,11,02,17,21.00
2018,08,11,02,18,21.00
2018,08,11,02,19,21.10
2018,08,11,02,20,21.10
2018,08,11,02,21,21.10
2018,08,11,02,22,21.10
2018,08,11,02,23,21.10
2018,08,11,02,24,21.00
2018,08,11,02,25,21.00
2018,08,11,02,26,21.00
2018,08,11,02,27,20.90
2018,08,11,02,28,20.90
2018,08,11,02,29,20.90
2018,08,11,02,30,20.80
2018,08,11,02,31,20.80
2018,08,11,02,32,20.80
2018,08,11,02,33,20.70
2018,08,11,02,34,20.70
2018,08,11,02,35,20.60
2018,08,11,02,36,20.50
2018,08,11,02,37,20.40
2018,08,11,02,38,20.40
2018,08,11,02,39,20.40
2018,08,11,02,40,20.30
2018,08,11,02,41,20.30
2018,08,11,02,42,20.30
2018,08,11,02,43,20.30
2018,08,11,02,44,20.30
2018,08,11,02,45,20.30
2018,08,11,02,46,20.30
2018,08,11,02,47,20.20
2018,08,11,02,48,20.20
2018,08,11,02,49,20.20
2018,08,11,02,50,20.20
2018,08,11,02,51,20.20
2018,08,11,02,52,20.20
2018,08,11,02,53,20.20
2018,08,11,02,54,20.20
2018,08,11,02,55,20.20
2018,08,11,02,56,20.20
2018,08,11,02,57,20.10
2018,08,11,02,58,20.10
2018,08,11,02,59,20.10
2018,08,11,03,00,20.10
2018,08,11,03,01,20.10
2018,08,11,03,02,20.10
2018,08,11,03,03,20.10
2018,08,11,03,04,20.10
2018,08,11,03,05,20.10
2018,08,11,03,06,20.10
2018,08,11,03,07,20.10
2018,08,11,03,08,20.10
2018,08,11,03,09,20.10
2018,08,11,03,10,20.10
2018,08,11,03,11,20.10
2018,08,11,03,12,20.10
2018,08,11,03,13,20.10
2018,08,11,03,14,20.10
2018,08,11,03,15,20.10
2018,08,11,03,16,20.10
2018,08,11,03,17,20.10
2018,08,11,03,18,20.00
2018,08,11,03,19,20.00
2018,08,11,03,20,20.00
2018,08,11,03,21,20.00
2018,08,11,03,22,20.00
2018,08,11,03,23,19.90
2018,08,11,03,24,19.90
2018,08,11,03,25,19.90
2018,08,11,03,26,19.90
2018,08,11,03,27,19.80
2018,08,11,03,28,19.80
2018,08,11,03,29,19.80
2018,08,11,03,30,19.70
2018,08,11,03,31,19.70
2018,08,11,03,32,19.70
2018,08,11,03,33,19.60
2018,08,11,03,34,19.60
2018,08,11,03,35,19.60
2018,08,11,03,36,19.60
2018,08,11,03,37,19.60
2018,08,11,03,38,19.60
2018,08,11,03,39,19.60
2018,08,11,03,40,19.60
2018,08,11,03,41,19.60
2018,08,11,03,42,19.60
2018,08,11,03,43,19.60
2018,08,11,03,44,19.50
2018,08,11,03,45,19.60
2018,08,11,03,46,19.50
2018,08,11,03,47,19.50
2018,08,11,03,48,19.40
2018,08,11,03,49,19.40
2018,08,11,03,50,19.30
2018,08,11,03,51,19.30
2018,08,11,03,52,19.30
2018,08,11,03,53,19.30
2018,08,11,03,54,19.30
2018,08,11,03,55,19.30
2018,08,11,03,56,19.30
2018,08,11,03,57,19.30
2018,08,11,03,58,19.30
2018,08,11,03,59,19.30
2018,08,11,04,00,19.30
2018,08,11,04,01,19.30
2018,08,11,04,02,19.30
2018,08,11,04,03,19.20
2018,08,11,04,04,19.20
2018,08,11,04,05,19.20
2018,08,11,04,06,19.20
2018,08,11,04,07,19.20
2018,08,11,04,08,19.10
2018,08,11,04,09,19.10
2018,08,11,04,10,19.00
2018,08,11,04,11,19.00
2018,08,11,04,12,19.00
2018,08,11,04,13,18.90
2018,08,11,04,14,18.90
2018,08,11,04,15,18.90
2018,08,11,04,16,19.00
2018,08,11,04,17,19.00
2018,08,11,04,18,19.10
2018,08,11,04,19,19.10
2018,08,11,04,20,19.10
2018,08,11,04,21,19.10
2018,08,11,04,22,19.10
2018,08,11,04,23,19.10
2018,08,11,04,24,19.10
2018,08,11,04,25,19.10
2018,08,11,04,26,19.10
2018,08,11,04,27,19.10
2018,08,11,04,28,19.10
2018,08,11,04,29,19.10
2018,08,11,04,30,19.20
2018,08,11,04,31,19.20
2018,08,11,04,32,19.20
2018,08,11,04,33,19.20
2018,08,11,04,34,19.20
2018,08,11,04,35,19.30
2018,08,11,04,36,19.30
2018,08,11,04,37,19.30
2018,08,11,04,38,19.30
2018,08,11,04,39,19.30
2018,08,11,04,40,19.30
2018,08,11,04,41,19.30
2018,08,11,04,42,19.30
2018,08,11,04,43,19.30
2018,08,11,04,44,19.30
2018,08,11,04,45,19.30
2018,08,11,04,46,19.20
2018,08,11,04,47,19.20
2018,08,11,04,48,19.20
2018,08,11,04,49,19.20
2018,08,11,04,50,19.20
2018,08,11,04,51,19.20
2018,08,11,04,52,19.20
2018,08,11,04,53,19.20
2018,08,11,04,54,19.10
2018,08,11,04,55,19.10
2018,08,11,04,56,19.10
2018,08,11,04,57,19.10
2018,08,11,04,58,19.10
2018,08,11,04,59,19.00
2018,08,11,05,00,19.00
2018,08,11,05,01,19.00
2018,08,11,05,02,18.90
2018,08,11,05,03,18.90
2018,08,11,05,04,18.80
2018,08,11,05,05,18.80
2018,08,11,05,06,18.80
2018,08,11,05,07,18.80
2018,08,11,05,08,18.80
2018,08,11,05,09,18.70
2018,08,11,05,10,18.70
2018,08,11,05,11,18.70
2018,08,11,05,12,18.70
2018,08,11,05,13,18.60
2018,08,11,05,14,18.60
2018,08,11,05,15,18.60
2018,08,11,05,16,18.50
2018,08,11,05,17,18.50
2018,08,11,05,18,18.50
2018,08,11,05,19,18.50
2018,08,11,05,20,18.50
2018,08,11,05,21,18.50
2018,08,11,05,22,18.40
2018,08,11,05,23,18.40
2018,08,11,05,24,18.40
2018,08,11,05,25,18.40
2018,08,11,05,26,18.40
2018,08,11,05,27,18.40
2018,08,11,05,28,18.40
2018,08,11,05,29,18.40
2018,08,11,05,30,18.30
2018,08,11,05,31,18.30
2018,08,11,05,32,18.30
2018,08,11,05,33,18.30
2018,08,11,05,34,18.30
2018,08,11,05,35,18.30
2018,08,11,05,36,18.30
2018,08,11,05,37,18.30
2018,08,11,05,38,18.20
2018,08,11,05,39,18.20
2018,08,11,05,40,18.20
2018,08,11,05,41,18.20
2018,08,11,05,42,18.20
2018,08,11,05,43,18.20
2018,08,11,05,44,18.20
2018,08,11,05,45,18.20
2018,08,11,05,46,18.20
2018,08,11,05,47,18.30
2018,08,11,05,48,18.30
2018,08,11,05,49,18.30
2018,08,11,05,50,18.30
2018,08,11,05,51,18.30
2018,08,11,05,52,18.30
2018,08,11,05,53,18.30
2018,08,11,05,54,18.30
2018,08,11,05,55,18.30
2018,08,11,05,56,18.30
2018,08,11,05,57,18.30
2018,08,11,05,58,18.30
2018,08,11,05,59,18.20
2018,08,11,06,00,18.20
2018,08,11,06,01,18.20
2018,08,11,06,02,18.20
2018,08,11,06,03,18.20
2018,08,11,06,04,18.10
2018,08,11,06,05,18.10
2018,08,11,06,06,18.10
2018,08,11,06,07,18.10
2018,08,11,06,08,18.10
2018,08,11,06,09,18.10
2018,08,11,06,10,18.10
2018,08,11,06,11,18.10
2018,08,11,06,12,18.10
2018,08,11,06,13,18.10
2018,08,11,06,14,18.00
2018,08,11,06,15,18.00
2018,08,11,06,16,18.00
2018,08,11,06,17,17.90
2018,08,11,06,18,17.90
2018,08,11,06,19,17.90
2018,08,11,06,20,17.80
2018,08,11,06,21,17.80
2018,08,11,06,22,17.80
2018,08,11,06,23,17.80
2018,08,11,06,24,17.80
2018,08,11,06,25,17.80
2018,08,11,06,26,17.80
2018,08,11,06,27,17.80
2018,08,11,06,28,17.80
2018,08,11,06,29,17.80
2018,08,11,06,30,17.80
2018,08,11,06,31,17.80
2018,08,11,06,32,17.80
2018,08,11,06,33,17.80
2018,08,11,06,34,17.80
2018,08,11,06,35,17.90
2018,08,11,06,36,17.90
2018,08,11,06,37,17.80
2018,08,11,06,38,17.80
2018,08,11,06,39,17.80
2018,08,11,06,40,17.80
2018,08,11,06,41,17.90
2018,08,11,06,42,17.90
2018,08,11,06,43,17.90
2018,08,11,06,44,17.90
2018,08,11,06,45,17.90
2018,08,11,06,46,17.90
2018,08,11,06,47,17.90
2018,08,11,06,48,17.90
2018,08,11,06,49,17.90
2018,08,11,06,50,18.00
2018,08,11,06,51,18.00
2018,08,11,06,52,18.00
2018,08,11,06,53,18.00
2018,08,11,06,54,18.10
2018,08,11,06,55,18.10
2018,08,11,06,56,18.10
2018,08,11,06,57,18.10
2018,08,11,06,58,18.10
2018,08,11,06,59,18.20
2018,08,11,07,00,18.20
2018,08,11,07,01,18.20
2018,08,11,07,02,18.20
2018,08,11,07,03,18.20
2018,08,11,07,04,18.20
2018,08,11,07,05,18.20
2018,08,11,07,06,18.20
2018,08,11,07,07,18.20
2018,08,11,07,08,18.20
2018,08,11,07,09,18.30
2018,08,11,07,10,18.30
2018,08,11,07,11,18.30
2018,08,11,07,12,18.30
2018,08,11,07,13,18.30
2018,08,11,07,14,18.30
2018,08,11,07,15,18.30
2018,08,11,07,16,18.30
2018,08,11,07,17,18.40
2018,08,11,07,18,18.40
2018,08,11,07,19,18.40
2018,08,11,07,20,18.40
2018,08,11,07,21,18.40
2018,08,11,07,22,18.50
2018,08,11,07,23,18.50
2018,08,11,07,24,18.60
2018,08,11,07,25,18.60
2018,08,11,07,26,18.60
2018,08,11,07,27,18.70
2018,08,11,07,28,18.70
2018,08,11,07,29,18.70
2018,08,11,07,30,18.80
2018,08,11,07,31,18.80
2018,08,11,07,32,18.90
2018,08,11,07,33,18.90
2018,08,11,07,34,19.00
2018,08,11,07,35,19.00
2018,08,11,07,36,19.10
2018,08,11,07,37,19.10
2018,08,11,07,38,19.20
2018,08,11,07,39,19.20
2018,08,11,07,40,19.30
2018,08,11,07,41,19.30
2018,08,11,07,42,19.30
2018,08,11,07,43,19.40
2018,08,11,07,44,19.40
2018,08,11,07,45,19.40
2018,08,11,07,46,19.50
2018,08,11,07,47,19.60
2018,08,11,07,48,19.60
2018,08,11,07,49,19.70
2018,08,11,07,50,19.70
2018,08,11,07,51,19.80
2018,08,11,07,52,19.80
2018,08,11,07,53,19.90
2018,08,11,07,54,19.90
2018,08,11,07,55,19.90
2018,08,11,07,56,19.90
2018,08,11,07,57,19.90
2018,08,11,07,58,19.90
2018,08,11,07,59,19.90
2018,08,11,08,00,19.90
2018,08,11,08,01,19.90
2018,08,11,08,02,19.90
2018,08,11,08,03,19.90
2018,08,11,08,04,19.90
2018,08,11,08,05,19.90
2018,08,11,08,06,20.00
2018,08,11,08,07,20.00
2018,08,11,08,08,20.00
2018,08,11,08,09,20.00
2018,08,11,08,10,20.10
2018,08,11,08,11,20.10
2018,08,11,08,12,20.10
2018,08,11,08,13,20.20
2018,08,11,08,14,20.20
2018,08,11,08,15,20.20
2018,08,11,08,16,20.30
2018,08,11,08,17,20.30
2018,08,11,08,18,20.30
2018,08,11,08,19,20.30
2018,08,11,08,20,20.40
2018,08,11,08,21,20.40
2018,08,11,08,22,20.40
2018,08,11,08,23,20.50
2018,08,11,08,24,20.50
2018,08,11,08,25,20.50
2018,08,11,08,26,20.50
2018,08,11,08,27,20.60
2018,08,11,08,28,20.60
2018,08,11,08,29,20.60
2018,08,11,08,30,20.60
2018,08,11,08,31,20.70
2018,08,11,08,32,20.70
2018,08,11,08,33,20.70
2018,08,11,08,34,20.70
2018,08,11,08,35,20.80
2018,08,11,08,36,20.80
2018,08,11,08,37,20.80
2018,08,11,08,38,20.90
2018,08,11,08,39,20.90
2018,08,11,08,40,21.00
2018,08,11,08,41,21.00
2018,08,11,08,42,21.00
2018,08,11,08,43,21.00
2018,08,11,08,44,21.00
2018,08,11,08,45,21.10
2018,08,11,08,46,21.10
2018,08,11,08,47,21.10
2018,08,11,08,48,21.10
2018,08,11,08,49,21.10
2018,08,11,08,50,21.10
2018,08,11,08,51,21.10
2018,08,11,08,52,21.10
2018,08,11,08,53,21.10
2018,08,11,08,54,21.10
2018,08,11,08,55,21.00
2018,08,11,08,56,21.00
2018,08,11,08,57,21.00
2018,08,11,08,58,21.00
2018,08,11,08,59,20.90
2018,08,11,09,00,20.90
2018,08,11,09,01,20.90
2018,08,11,09,02,20.80
2018,08,11,09,03,20.80
2018,08,11,09,04,20.80
2018,08,11,09,05,20.80
2018,08,11,09,06,20.80
2018,08,11,09,07,20.80
2018,08,11,09,08,20.80
2018,08,11,09,09,20.80
2018,08,11,09,10,20.70
2018,08,11,09,11,20.70
2018,08,11,09,12,20.70
2018,08,11,09,13,20.70
2018,08,11,09,14,20.70
2018,08,11,09,15,20.70
2018,08,11,09,16,20.70
2018,08,11,09,17,20.70
2018,08,11,09,18,20.70
2018,08,11,09,19,20.70
2018,08,11,09,20,20.80
2018,08,11,09,21,20.80
2018,08,11,09,22,20.80
2018,08,11,09,23,20.80
2018,08,11,09,24,20.80
2018,08,11,09,25,20.80
2018,08,11,09,26,20.80
2018,08,11,09,27,20.80
2018,08,11,09,28,20.80
2018,08,11,09,29,20.80
2018,08,11,09,30,20.80
2018,08,11,09,31,20.90
2018,08,11,09,32,20.90
2018,08,11,09,33,20.90
2018,08,11,09,34,20.90
2018,08,11,09,35,20.90
2018,08,11,09,36,20.90
2018,08,11,09,37,20.90
2018,08,11,09,38,20.90
2018,08,11,09,39,20.90
2018,08,11,09,40,20.90
2018,08,11,09,41,21.00
2018,08,11,09,42,20.90
2018,08,11,09,43,21.00
2018,08,11,09,44,21.00
2018,08,11,09,45,21.00
2018,08,11,09,46,21.00
2018,08,11,09,47,21.00
2018,08,11,09,48,21.00
2018,08,11,09,49,21.00
2018,08,11,09,50,21.00
2018,08,11,09,51,21.00
2018,08,11,09,52,21.00
2018,08,11,09,53,21.10
2018,08,11,09,54,21.00
2018,08,11,09,55,21.00
2018,08,11,09,56,21.00
2018,08,11,09,57,21.00
2018,08,11,09,58,21.00
2018,08,11,09,59,21.00
2018,08,11,10,00,21.00
2018,08,11,10,01,21.10
2018,08,11,10,02,21.10
2018,08,11,10,03,21.10
2018,08,11,10,04,21.20
2018,08,11,10,05,21.20
2018,08,11,10,06,21.20
2018,08,11,10,07,21.20
2018,08,11,10,08,21.20
2018,08,11,10,09,21.20
2018,08,11,10,10,21.10
2018,08,11,10,11,21.10
2018,08,11,10,12,21.10
2018,08,11,10,13,21.20
2018,08,11,10,14,21.20
2018,08,11,10,15,21.20
2018,08,11,10,16,21.20
2018,08,11,10,17,21.20
2018,08,11,10,18,21.20
2018,08,11,10,19,21.20
2018,08,11,10,20,21.20
2018,08,11,10,21,21.30
2018,08,11,10,22,21.30
2018,08,11,10,23,21.30
2018,08,11,10,24,21.30
2018,08,11,10,25,21.30
2018,08,11,10,26,21.30
2018,08,11,10,27,21.30
2018,08,11,10,28,21.30
2018,08,11,10,29,21.30
2018,08,11,10,30,21.30
2018,08,11,10,31,21.30
2018,08,11,10,32,21.20
2018,08,11,10,33,21.10
2018,08,11,10,34,21.10
2018,08,11,10,35,21.00
2018,08,11,10,36,21.00
2018,08,11,10,37,21.00
2018,08,11,10,38,21.00
2018,08,11,10,39,21.00
2018,08,11,10,40,21.00
2018,08,11,10,41,21.00
2018,08,11,10,42,20.90
2018,08,11,10,43,20.90
2018,08,11,10,44,20.90
2018,08,11,10,45,20.80
2018,08,11,10,46,20.80
2018,08,11,10,47,20.80
2018,08,11,10,48,20.80
2018,08,11,10,49,20.80
2018,08,11,10,50,20.80
2018,08,11,10,51,20.80
2018,08,11,10,52,20.80
2018,08,11,10,53,20.90
2018,08,11,10,54,20.80
2018,08,11,10,55,20.80
2018,08,11,10,56,20.80
2018,08,11,10,57,20.70
2018,08,11,10,58,20.70
2018,08,11,10,59,20.70
2018,08,11,11,00,20.60
2018,08,11,11,01,20.60
2018,08,11,11,02,20.60
2018,08,11,11,03,20.50
2018,08,11,11,04,20.50
2018,08,11,11,05,20.50
2018,08,11,11,06,20.50
2018,08,11,11,07,20.40
2018,08,11,11,08,20.40
2018,08,11,11,09,20.40
2018,08,11,11,10,20.40
2018,08,11,11,11,20.40
2018,08,11,11,12,20.40
2018,08,11,11,13,20.40
2018,08,11,11,14,20.40
2018,08,11,11,15,20.40
2018,08,11,11,16,20.40
2018,08,11,11,17,20.30
2018,08,11,11,18,20.30
2018,08,11,11,19,20.30
2018,08,11,11,20,20.30
2018,08,11,11,21,20.30
2018,08,11,11,22,20.30
2018,08,11,11,23,20.30
2018,08,11,11,24,20.30
2018,08,11,11,25,20.40
2018,08,11,11,26,20.40
2018,08,11,11,27,20.40
2018,08,11,11,28,20.40
2018,08,11,11,29,20.50
2018,08,11,11,30,20.50
2018,08,11,11,31,20.60
2018,08,11,11,32,20.60
2018,08,11,11,33,20.60
2018,08,11,11,34,20.60
2018,08,11,11,35,20.60
2018,08,11,11,36,20.60
2018,08,11,11,37,20.70
2018,08,11,11,38,20.70
2018,08,11,11,39,20.80
2018,08,11,11,40,20.90
2018,08,11,11,41,21.00
2018,08,11,11,42,21.20
2018,08,11,11,43,21.30
2018,08,11,11,44,21.30
2018,08,11,11,45,21.30
2018,08,11,11,46,21.40
2018,08,11,11,47,21.40
2018,08,11,11,48,21.40
2018,08,11,11,49,21.30
2018,08,11,11,50,21.30
2018,08,11,11,51,21.30
2018,08,11,11,52,21.40
2018,08,11,11,53,21.40
2018,08,11,11,54,21.30
2018,08,11,11,55,21.30
2018,08,11,11,56,21.20
2018,08,11,11,57,21.20
2018,08,11,11,58,21.20
2018,08,11,11,59,21.20
2018,08,11,12,00,21.10
2018,08,11,12,01,21.10
2018,08,11,12,02,21.00
2018,08,11,12,03,20.80
2018,08,11,12,04,20.80
2018,08,11,12,05,20.80
2018,08,11,12,06,20.70
2018,08,11,12,07,20.70
2018,08,11,12,08,20.70
2018,08,11,12,09,20.60
2018,08,11,12,10,20.60
2018,08,11,12,11,20.60
2018,08,11,12,12,20.60
2018,08,11,12,13,20.60
2018,08,11,12,14,20.60
2018,08,11,12,15,20.70
2018,08,11,12,16,20.70
2018,08,11,12,17,20.70
2018,08,11,12,18,20.70
2018,08,11,12,19,20.70
2018,08,11,12,20,20.70
2018,08,11,12,21,20.70
2018,08,11,12,22,20.70
2018,08,11,12,23,20.70
2018,08,11,12,24,20.70
2018,08,11,12,25,20.80
2018,08,11,12,26,20.80
2018,08,11,12,27,20.70
2018,08,11,12,28,20.70
2018,08,11,12,29,20.70
2018,08,11,12,30,20.70
2018,08,11,12,31,20.70
2018,08,11,12,32,20.70
2018,08,11,12,33,20.70
2018,08,11,12,34,20.60
2018,08,11,12,35,20.60
2018,08,11,12,36,20.50
2018,08,11,12,37,20.40
2018,08,11,12,38,20.30
2018,08,11,12,39,20.20
2018,08,11,12,40,20.20
2018,08,11,12,41,20.10
2018,08,11,12,42,20.10
2018,08,11,12,43,20.10
2018,08,11,12,44,20.00
2018,08,11,12,45,20.00
2018,08,11,12,46,20.00
2018,08,11,12,47,19.90
2018,08,11,12,48,19.90
2018,08,11,12,49,19.90
2018,08,11,12,50,19.90
2018,08,11,12,51,19.90
2018,08,11,12,52,19.90
2018,08,11,12,53,19.90
2018,08,11,12,54,19.90
2018,08,11,12,55,19.90
2018,08,11,12,56,19.90
2018,08,11,12,57,19.90
2018,08,11,12,58,19.90
2018,08,11,12,59,19.90
2018,08,11,13,00,19.90
2018,08,11,13,01,19.90
2018,08,11,13,02,19.90
2018,08,11,13,03,19.90
2018,08,11,13,04,20.00
2018,08,11,13,05,20.00
2018,08,11,13,06,20.10
2018,08,11,13,07,20.10
2018,08,11,13,08,20.10
2018,08,11,13,09,20.10
2018,08,11,13,10,20.10
2018,08,11,13,11,20.10
2018,08,11,13,12,20.10
2018,08,11,13,13,20.10
2018,08,11,13,14,20.10
2018,08,11,13,15,20.10
2018,08,11,13,16,20.10
2018,08,11,13,17,20.10
2018,08,11,13,18,20.00
2018,08,11,13,19,20.00
2018,08,11,13,20,20.00
2018,08,11,13,21,20.00
2018,08,11,13,22,20.00
2018,08,11,13,23,20.00
2018,08,11,13,24,20.10
2018,08,11,13,25,20.10
2018,08,11,13,26,20.10
2018,08,11,13,27,20.10
2018,08,11,13,28,20.20
2018,08,11,13,29,20.20
2018,08,11,13,30,20.20
2018,08,11,13,31,20.20
2018,08,11,13,32,20.20
2018,08,11,13,33,20.20
2018,08,11,13,34,20.20
2018,08,11,13,35,20.20
2018,08,11,13,36,20.20
2018,08,11,13,37,20.20
2018,08,11,13,38,20.20
2018,08,11,13,39,20.20
2018,08,11,13,40,20.20
2018,08,11,13,41,20.10
2018,08,11,13,42,20.10
2018,08,11,13,43,20.10
2018,08,11,13,44,20.00
2018,08,11,13,45,20.00
2018,08,11,13,46,19.90
2018,08,11,13,47,19.90
2018,08,11,13,48,19.90
2018,08,11,13,49,19.80
2018,08,11,13,50,19.80
2018,08,11,13,51,19.80
2018,08,11,13,52,19.70
2018,08,11,13,53,19.70
2018,08,11,13,54,19.70
2018,08,11,13,55,19.70
2018,08,11,13,56,19.70
2018,08,11,13,57,19.70
2018,08,11,13,58,19.70
2018,08,11,13,59,19.80
2018,08,11,14,00,19.80
2018,08,11,14,01,19.80
2018,08,11,14,02,19.80
2018,08,11,14,03,19.80
2018,08,11,14,04,19.80
2018,08,11,14,05,19.80
2018,08,11,14,06,19.80
2018,08,11,14,07,19.80
2018,08,11,14,08,19.80
2018,08,11,14,09,19.80
2018,08,11,14,10,19.80
2018,08,11,14,11,19.80
2018,08,11,14,12,19.80
2018,08,11,14,13,19.80
2018,08,11,14,14,19.80
2018,08,11,14,15,19.80
2018,08,11,14,16,19.90
2018,08,11,14,17,19.80
2018,08,11,14,18,19.90
2018,08,11,14,19,19.80
2018,08,11,14,20,19.90
2018,08,11,14,21,19.90
2018,08,11,14,22,19.90
2018,08,11,14,23,20.00
2018,08,11,14,24,20.00
2018,08,11,14,25,20.10
2018,08,11,14,26,20.10
2018,08,11,14,27,20.10
2018,08,11,14,28,20.10
2018,08,11,14,29,20.10
2018,08,11,14,30,20.10
2018,08,11,14,31,20.10
2018,08,11,14,32,20.10
2018,08,11,14,33,20.10
2018,08,11,14,34,20.20
2018,08,11,14,35,20.10
2018,08,11,14,36,20.20
2018,08,11,14,37,20.20
2018,08,11,14,38,20.20
2018,08,11,14,39,20.20
2018,08,11,14,40,20.20
2018,08,11,14,41,20.30
2018,08,11,14,42,20.30
2018,08,11,14,43,20.40
2018,08,11,14,44,20.40
2018,08,11,14,45,20.50
2018,08,11,14,46,20.50
2018,08,11,14,47,20.50
2018,08,11,14,48,20.50
2018,08,11,14,49,20.60
2018,08,11,14,50,20.60
2018,08,11,14,51,20.60
2018,08,11,14,52,20.60
2018,08,11,14,53,20.70
2018,08,11,14,54,20.70
2018,08,11,14,55,20.70
2018,08,11,14,56,20.60
2018,08,11,14,57,20.60
2018,08,11,14,58,20.60
2018,08,11,14,59,20.60
2018,08,11,15,00,20.60
2018,08,11,15,01,20.60
2018,08,11,15,02,20.60
2018,08,11,15,03,20.60
2018,08,11,15,04,20.60
2018,08,11,15,05,20.50
2018,08,11,15,06,20.50
2018,08,11,15,07,20.50
2018,08,11,15,08,20.50
2018,08,11,15,09,20.50
2018,08,11,15,10,20.50
2018,08,11,15,11,20.60
2018,08,11,15,12,20.60
2018,08,11,15,13,20.60
2018,08,11,15,14,20.70
2018,08,11,15,15,20.70
2018,08,11,15,16,20.80
2018,08,11,15,17,20.80
2018,08,11,15,18,20.90
2018,08,11,15,19,20.90
2018,08,11,15,20,21.00
2018,08,11,15,21,21.00
2018,08,11,15,22,21.10
2018,08,11,15,23,21.20
2018,08,11,15,24,21.30
2018,08,11,15,25,21.30
2018,08,11,15,26,21.40
2018,08,11,15,27,21.50
2018,08,11,15,28,21.70
2018,08,11,15,29,21.90
2018,08,11,15,30,22.00
2018,08,11,15,31,22.00
2018,08,11,15,32,22.00
2018,08,11,15,33,22.00
2018,08,11,15,34,21.90
2018,08,11,15,35,21.90
2018,08,11,15,36,21.90
2018,08,11,15,37,22.00
2018,08,11,15,38,22.00
2018,08,11,15,39,22.10
2018,08,11,15,40,22.10
2018,08,11,15,41,22.10
2018,08,11,15,42,22.20
2018,08,11,15,43,22.20
2018,08,11,15,44,22.20
2018,08,11,15,45,22.20
2018,08,11,15,46,22.10
2018,08,11,15,47,22.10
2018,08,11,15,48,22.10
2018,08,11,15,49,22.10
2018,08,11,15,50,21.90
2018,08,11,15,51,21.90
2018,08,11,15,52,21.80
2018,08,11,15,53,21.80
2018,08,11,15,54,21.90
2018,08,11,15,55,21.90
2018,08,11,15,56,22.10
2018,08,11,15,57,22.20
2018,08,11,15,58,22.30
2018,08,11,15,59,22.40
2018,08,11,16,00,22.40
2018,08,11,16,01,22.50
2018,08,11,16,02,22.60
2018,08,11,16,03,22.70
2018,08,11,16,04,22.70
2018,08,11,16,05,22.70
2018,08,11,16,06,22.80
2018,08,11,16,07,22.80
2018,08,11,16,08,22.80
2018,08,11,16,09,22.80
2018,08,11,16,10,22.80
2018,08,11,16,11,22.70
2018,08,11,16,12,22.60
2018,08,11,16,13,22.50
2018,08,11,16,14,22.40
2018,08,11,16,15,22.50
2018,08,11,16,16,22.50
2018,08,11,16,17,22.50
2018,08,11,16,18,22.60
2018,08,11,16,19,22.60
2018,08,11,16,20,22.50
2018,08,11,16,21,22.50
2018,08,11,16,22,22.40
2018,08,11,16,23,22.30
2018,08,11,16,24,22.30
2018,08,11,16,25,22.30
2018,08,11,16,26,22.20
2018,08,11,16,27,22.10
2018,08,11,16,28,22.00
2018,08,11,16,29,21.90
2018,08,11,16,30,21.80
2018,08,11,16,31,21.80
2018,08,11,16,32,21.80
2018,08,11,16,33,21.80
2018,08,11,16,34,21.80
2018,08,11,16,35,21.80
2018,08,11,16,36,21.70
2018,08,11,16,37,21.80
2018,08,11,16,38,21.80
2018,08,11,16,39,21.80
2018,08,11,16,40,21.80
2018,08,11,16,41,21.80
2018,08,11,16,42,21.80
2018,08,11,16,43,21.80
2018,08,11,16,44,21.80
2018,08,11,16,45,21.70
2018,08,11,16,46,21.70
2018,08,11,16,47,21.60
2018,08,11,16,48,21.50
2018,08,11,16,49,21.50
2018,08,11,16,50,21.50
2018,08,11,16,51,21.50
2018,08,11,16,52,21.70
2018,08,11,16,53,21.80
2018,08,11,16,54,21.80
2018,08,11,16,55,21.90
2018,08,11,16,56,22.00
2018,08,11,16,57,22.00
2018,08,11,16,58,21.90
2018,08,11,16,59,21.90
2018,08,11,17,00,21.80
2018,08,11,17,01,21.80
2018,08,11,17,02,21.70
2018,08,11,17,03,21.60
2018,08,11,17,04,21.60
2018,08,11,17,05,21.50
2018,08,11,17,06,21.50
2018,08,11,17,07,21.50
2018,08,11,17,08,21.50
2018,08,11,17,09,21.50
2018,08,11,17,10,21.60
2018,08,11,17,11,21.60
2018,08,11,17,12,21.60
2018,08,11,17,13,21.50
2018,08,11,17,14,21.40
2018,08,11,17,15,21.30
2018,08,11,17,16,21.20
2018,08,11,17,17,21.10
2018,08,11,17,18,21.10
2018,08,11,17,19,21.10